Regional Weather Roundup
Issued by NWS

Home | Current Version | Previous Version | Graphics & Text | Print | Product List | Glossary On
Versions: 1 2 3 4 5 6 7 8 9 10 11 12 13 14 15 16 17 18 19 20 21 22 23 24 25 26 27 28 29 30 31 32 33 34 35 36 37 38 39 40 41 42 43 44 45 46 47 48 49 50
000
ASUS43 KTOP 020259
RWRKS

WEATHER ROUNDUP FOR KANSAS
NATIONAL WEATHER SERVICE GOODLAND KS
1000 PM CDT WED OCT 01 2014

NOTE:  "FAIR" INDICATES FEW OR NO CLOUDS BELOW 12,000 FEET WITH NO
SIGNIFICANT WEATHER AND/OR OBSTRUCTIONS TO VISIBILITY.

KSZ001>006-013>018-027>032-041>047-020400-
NORTHWEST KANSAS

CITY           SKY/WX    TMP DP  RH WIND       PRES   REMARKS
GOODLAND       MOCLDY    52  46  80 N20G29    29.92R
HAYS           PTCLDY    63  57  82 N6        29.77R
HILL CITY      CLEAR     64  55  72 CALM      29.77S
RUSSELL        CLEAR     66  61  84 N5        29.75R
$$

KSZ061>065-074>080-084>089-020400-
SOUTHWEST KANSAS

CITY           SKY/WX    TMP DP  RH WIND       PRES   REMARKS
DODGE CITY     CLEAR     63  56  78 E8        29.78R
GARDEN CITY    CLEAR     64  53  67 E10       29.77S
GREAT BEND     PTCLDY    66  61  82 N3        29.76R
LIBERAL        CLEAR     70  39  32 CALM      29.79R
$$

KSZ066>073-081>083-090>101-020400-
SOUTHEAST KANSAS

CITY           SKY/WX    TMP DP  RH WIND       PRES   REMARKS
CHANUTE        PTCLDY    76  68  76 S17G23    29.72R
COFFEYVILLE    CLEAR     77  68  73 S14       29.72R
HUTCHINSON     PTCLDY    73  66  78 N10       29.72R
MEDICINE LODGE   N/A     68  58  70 N8        29.71R
NEWTON         CLEAR     72  61  68 E6        29.73R
PARSONS        LGT RAIN  76  69  79 S8        29.74R
WICHITA INTL   PTCLDY    70  50  49 W9        29.69R
WICHITA JABRA  CLEAR     70  59  68 S5        29.69R
WINFIELD       PTCLDY    77  64  64 SW8       29.72R
$$

KSZ007>012-019>026-033>040-048>060-102>105-020400-
NORTHEAST KANSAS

CITY           SKY/WX    TMP DP  RH WIND       PRES   REMARKS
CONCORDIA      PTCLDY    68  62  81 NE3       29.74S
EMPORIA        CLOUDY    68  65  90 E8        29.72R
LAWRENCE       CLOUDY    67  64  90 E14       29.78R THUNDER
MANHATTAN      CLEAR     67  64  90 NE6       29.73R
OLATHE IND     CLOUDY    69  67  93 E6        29.77R FOG
OLATHE EXE     LGT RAIN  68  66  93 NE5       29.78R
SALINA         CLEAR     72  63  73 E10       29.73R
TOPEKA BILLARD CLOUDY    67  66  97 VRB3      29.74F
TOPEKA FORBES  MOCLDY    68  61  78 E7        29.74F
$$



USA.gov is the U.S. government's official web portal to all federal, state and local government web resources and services.